STARLINK-1801, 46701

Orbit data source: Space-Track

STARLINK-1801, 46701 is a payload satellite owned by SpaceX/Seattle (US) in LEO that was launched on Sun, 18 Oct 2020 UTC via an FALCON 9 launch vehicle from the Air Force Eastern Test Range (AFETR). Payload-class satellites include a variety of spacecraft equipped with specific instruments for various scientific and technological missions. These include communications satellites like Starlink; space stations such as the ISS; scientific satellites like the Hubble; Earth observation satellites from companies like Planet Labs, Umbra, and HawkEye 360; GPS; miniature CubeSats for education and research; and military/defense satellites.

Loading next visibility...
Identifier
46701, 2020-073AH
Orbit
LEO
Country
Flag of USUS
Related business
Manufacturer
SpaceX/Seattle
Mission
Partially operational Commercial Communications
Bus & Motor
STARLINK, Unknown motor
Mass
260 kg wet, ~248 kg dry
Launch date (UTC)
2020-10-18 (5 years ago)
Launch vehicle
FALCON 9
Launch site
Air Force Eastern Test Range (AFETR)
Object type
Payload
Rocket body
Debris
Shape & HBR
Box + 1 Pan, 10.1 m
Radar Cross Section
13.562 m², Large (>1 m²)

Expand to show TLE details & history
Last TLE update: 8 hours ago

TLE from 8 hours ago
0 STARLINK-1801
1 46701U 20073AH  25355.25001156  .01187184  00000-0  18675-1 0  9998
2 46701  53.0514 220.0103 0001668  91.3604 323.7700 15.50440883  5948
Epoch: 2025-12-21T06:00Z
TLE epoch observation values (Epoch: 2025-12-21T06:00:00.998Z)
Latitude
41.09843°
Longitude
80.66749°
Altitude
418.332 km
Speed
7.666 km/s
True Right ascension
17h 22m 56s
True Declination
40° 55' 11"
Sunlit
Object was in daylight at epoch
Visualization orbit readout
Latitude
Unknown
Longitude
Unknown
Altitude
Unknown
Speed
Unknown
Apparent Right ascension
Unknown
Apparent Declination
Unknown
Sunlit
N/A
Visualization observer readout
Local Sidereal Time
12:56:11
Azimuth
Unknown
Elevation
Unknown
Doppler factor
Unknown
Orbital elements
Apogee altitude
416.847 km
Perigee altitude
414.581 km
Semi-major axis
6,793.851 km
Eccentricity
0.00017
Inclination
53.0514°
RAAN
220.0103°
Arg. of periapsis
91.3604°
True anomaly
323.7587°
Mean anomaly
323.77°
Eccentric anomaly
323.76435°
Mean motion
3.87587 °/min
Orbital period
92.88 mins
BSTAR
0.018675
Loading maneuver chart data...
Computing Atmospheric mass density...

Documentation

Showing up to 5 results
|